Regional Weather Roundup
Issued by NWS

Home | Current Version | Previous Version | Graphics & Text | Print | Product List | Glossary Off
Versions: 1 2 3 4 5 6 7 8 9 10 11 12 13 14 15 16 17 18 19 20 21 22 23 24 25 26 27 28 29 30 31 32 33 34 35 36 37 38 39 40 41 42 43 44 45 46 47 48 49 50

000
ASUS43 KMKX 101411
RWRWI

WISCONSIN REGIONAL WEATHER ROUNDUP
NATIONAL WEATHER SERVICE MILWAUKEE/SULLIVAN WI
800 AM CST SAT DEC 10 2016

NOTE: "FAIR" INDICATES FEW OR NO CLOUDS BELOW 12,000 FEET WITH NO
SIGNIFICANT WEATHER AND/OR OBSTRUCTIONS TO VISIBILITY.

WIZ001-002-006>008-014>016-023>028-101500-
NORTHWEST WISCONSIN

CITY           SKY/WX    TMP DP  RH WIND       PRES   REMARKS
SUPERIOR ARPT  CLOUDY     6  -3  67 NW7       30.49S WCI  -6
ASHLAND        CLOUDY     4   1  88 CALM      30.47S
HAYWARD        CLOUDY     7  -3  64 CALM      30.43S
SIREN          CLOUDY     9   1  68 N3        30.45F
CUMBERLAND     CLOUDY     9   1  72 W8        30.42F WCI  -4
RICE LAKE      CLOUDY     9   4  78 W7        30.45F WCI  -2
CHETEK         CLOUDY     8   3  79 W3        30.45F
LADYSMITH      CLOUDY    10   1  67 NW6       30.44R WCI   0
EAU CLAIRE     CLOUDY     9   4  80 SW7       30.47S WCI  -2
MENOMONIE      CLOUDY    10   3  71 SW8       30.48S WCI  -1
NEW RICHMOND   CLOUDY     3  -1  83 SW6       30.48S WCI  -8
OSCEOLA        CLEAR      4   0  82 W5        30.52S WCI  -5
$$

WIZ003>005-009-010-017-018-101500-
NORTH CENTRAL WISCONSIN

CITY           SKY/WX    TMP DP  RH WIND       PRES   REMARKS
MANITOWISH WTR CLEAR     -1  -3  88 W3        30.37S
ARBOR VITAE    CLOUDY     6   0  73 NW7       30.36F WCI  -5
WOODRUFF       CLOUDY     6   0  73 NW7       30.36F WCI  -5
RHINELANDER    MOCLDY     6  -2  69 NW8       30.36F WCI  -7
EAGLE RIVER    CLOUDY     5  -3  70 W8        30.35S WCI  -9
LAND O LAKES   FLURRIES   6   1  79 W3        30.36S
PHILLIPS       CLEAR      3  -4  75 CALM      30.38F
TOMAHAWK       CLOUDY     6  -2  70 NW3       30.39S
MEDFORD        CLOUDY     8   0  69 NW8       30.39R WCI  -5
MERRILL        CLOUDY    10   2  72 N6        30.41R WCI   0
$$

WIZ029-030-035-036-043>047-101500-
CENTRAL WISCONSIN

CITY           SKY/WX    TMP DP  RH WIND       PRES   REMARKS
WAUSAU         CLOUDY    11   3  70 NW8       30.40R WCI  -1
MOSINEE        CLOUDY    10   3  72 W6        30.41R WCI   1
MARSHFIELD     CLOUDY    10   1  67 NW10      30.42R WCI  -4
STEVENS POINT  CLOUDY    10   0  63 W5        30.43S WCI   2
WAUPACA        CLOUDY    15  10  78 CALM      30.45S
WAUTOMA        CLEAR      8   5  87 SW6       30.47  WCI  -2
WISC RAPIDS    FLURRIES  10   7  87 W8        30.46R WCI  -2
CAMP DOUGLAS   PTCLDY     7   3  85 W7        30.48R WCI  -5
$$

WIZ011>013-019>022-031-037>040-048>050-101500-
NORTHEAST WISCONSIN

CITY           SKY/WX    TMP DP  RH WIND       PRES   REMARKS
ANTIGO         CLOUDY     8   1  73 NW13      30.37S WCI  -8
SHAWANO        CLOUDY    17   7  66 NW6       30.43S WCI   8
OCONTO         CLOUDY    15   3  59 NW7       30.43S WCI   5
STURGEON BAY   CLOUDY    16   6  65 NW12      30.42R WCI   3
GREEN BAY      CLOUDY    18   5  57 W14       30.44R WCI   4
MANITOWOC      CLOUDY    16  10  77 W9        30.44S WCI   4
APPLETON       MOCLDY    12   7  79 W7        30.42R WCI   2
CLINTONVILLE   CLOUDY    14   3  62 W7        30.44R WCI   4
OSHKOSH        CLEAR     12   7  80 W6        30.44S WCI   3
$$

WIZ032>034-041-042-053>061-101500-
SOUTHWEST WISCONSIN

CITY           SKY/WX    TMP DP  RH WIND       PRES   REMARKS
LA CROSSE      PTCLDY     9   4  80 W6        30.51F WCI  -1
SPARTA         CLEAR      4   1  90 CALM      30.50S
VIROQUA        PTCLDY     6   2  86 NW3       30.45F
BOSCOBEL       CLOUDY    15   9  76 CALM      30.52S
PRAIRIE DU CHI CLOUDY    15   9  76 CALM      30.51S
PLATTEVILLE    CLOUDY    16  15  98 CALM      30.48F
$$

WIZ056-057-062-063-064-067-068-101500-
SOUTH CENTRAL WISCONSIN

CITY           SKY/WX    TMP DP  RH WIND       PRES   REMARKS
REEDSBURG      CLEAR     11   7  86 W7        30.49R WCI   0
BARABOO/DELLS  CLEAR     10   7  87 W5        30.47S WCI   2
LONE ROCK      CLOUDY    15   9  76 W6        30.50S WCI   6
MINERAL POINT  CLOUDY    14  14 100 CALM      30.46F
MADISON        PTCLDY    13   9  84 VRB5      30.48R WCI   5
MIDDLETON      PTCLDY    14  11  89 W3        30.49R
WATERTOWN      CLEAR     14  11  89 W3        30.48R
MONROE         CLOUDY    16  14  93 W7        30.46F WCI   6
JANESVILLE     PTCLDY    16  16 100 W6        30.50R WCI   7
$$

WIZ051-052-058>065-066-070>072-101500-
SOUTHEAST WISCONSIN

CITY           SKY/WX    TMP DP  RH WIND       PRES   REMARKS
MILWAUKEE      PTCLDY    18  11  74 W7        30.48R WCI   9
WAUKESHA       PTCLDY    14   9  79 W8        30.47R WCI   3
MILWAUKEE/TIMM CLEAR     16   9  73 W8        30.48R WCI   5
RACINE         CLEAR     16  11  80 W7        30.49S WCI   6
BURLINGTON     CLEAR     20  17  90 CALM      30.49R
KENOSHA        CLEAR     13  10  88 W5        30.48R WCI   5
FOND DU LAC    CLEAR     13   6  74 CALM      30.45S
SHEBOYGAN      CLEAR     14   8  77 W9        30.45R WCI   2
WEST BEND      MOCLDY    14  12  92 W9        30.45S WCI   2
JUNEAU         CLEAR     10   7  89 SW6       30.47S WCI   0
$$

LSZ147-162-101500-
LAKE SUPERIOR

STATION/POSITION TIME  TEMP    WIND        PRES    WAVE
                       AIR SEA DIR/SP/G            HT/PER
                 (UTC) (F)     (DEG/KT/KT) (MB)    (FT/S)
DEVILS ISLAND    1400    9     290/ 12/ 15 1033.0F
PORT WING        1340    9     320/ 10/ 18 1031.8F
SAXON HARBOR     1330    8     210/  7/  9 1031.5F
$$

LMZ867-665-643>646-101500-
LAKE MICHIGAN

STATION/POSITION TIME  TEMP    WIND        PRES    WAVE
                       AIR SEA DIR/SP/G            HT/PER
                 (UTC) (F)     (DEG/KT/KT) (MB)    (FT/S)
CHAMBERS ISLAND  1340   14     250/  8/ 20 1029.1S
NORTHPORT PIER   1356   16     280/ 11/ 21 1029.5R
SISTER BAY       1320   16     310/ 21/ 23   N/A
ALGOMA LAKESHORE 1236          260/  8/ 10   N/A
KEWAUNEE LAKESHO 1348   17     300/  5/ 15 1029.5S
SHEBOYGAN LAKESH 1400   16     250/ 10/ 12 1032.4R
PORT WASHINGTON  1340   18     260/  6/ 10 1032.5S
KENOSHA   LAKESH 1400   18     260/  5/  7 1032.2
$$

TC  - TEMPERATURE IN CELSIUS
VSB - VISIBILITY IN STATUTE MILES
WCI - WIND CHILL INDEX
HX  - HEAT INDEX





USA.gov is the U.S. government's official web portal to all federal, state and local government web resources and services.